TimePDT,TemperatureF,Dew PointF,Humidity,Sea Level PressureIn,VisibilityMPH,Wind Direction,Wind SpeedMPH,Gust SpeedMPH,PrecipitationIn,Events,Conditions,WindDirDegrees,DateUTC
12:53 AM,57.0,50.0,77,30.19,10.0,South,5.8,-,N/A,,Overcast,190,2012-10-25 07:53:00
1:53 AM,57.0,50.0,77,30.20,10.0,Calm,Calm,-,N/A,,Overcast,0,2012-10-25 08:53:00
2:53 AM,57.0,50.0,77,30.22,10.0,South,3.5,-,N/A,,Overcast,180,2012-10-25 09:53:00
3:53 AM,55.9,48.9,77,30.22,10.0,South,3.5,-,N/A,,Overcast,190,2012-10-25 10:53:00
4:53 AM,55.0,48.9,80,30.21,10.0,SSW,8.1,-,N/A,,Overcast,210,2012-10-25 11:53:00
5:53 AM,54.0,50.0,86,30.23,10.0,WSW,3.5,-,N/A,,Overcast,240,2012-10-25 12:53:00
6:53 AM,54.0,50.0,86,30.24,10.0,Calm,Calm,-,N/A,,Overcast,0,2012-10-25 13:53:00
7:53 AM,54.0,51.1,90,30.25,10.0,NNW,3.5,-,N/A,,Overcast,330,2012-10-25 14:53:00
8:53 AM,55.0,51.1,86,30.28,10.0,NNW,5.8,-,N/A,,Overcast,340,2012-10-25 15:53:00
9:25 AM,55.4,51.8,88,30.29,10.0,NW,8.1,-,N/A,,Overcast,320,2012-10-25 16:25:00
9:53 AM,54.0,51.1,90,30.28,10.0,NW,9.2,-,N/A,,Overcast,320,2012-10-25 16:53:00
10:53 AM,59.0,50.0,72,30.28,10.0,NNW,13.8,-,N/A,,Partly Cloudy,330,2012-10-25 17:53:00
11:53 AM,62.1,50.0,65,30.27,10.0,NW,16.1,-,N/A,,Clear,320,2012-10-25 18:53:00
12:53 PM,64.4,48.2,56,30.26,10.0,NNW,18.4,25.3,N/A,,Clear,330,2012-10-25 19:53:00
1:53 PM,66.0,48.0,52,30.24,10.0,NNW,17.3,24.2,N/A,,Clear,340,2012-10-25 20:53:00
2:53 PM,66.9,48.0,51,30.22,10.0,NNW,15.0,26.5,N/A,,Clear,340,2012-10-25 21:53:00
3:53 PM,66.9,45.0,45,30.22,10.0,NNW,18.4,-,N/A,,Clear,340,2012-10-25 22:53:00
4:53 PM,66.0,45.0,47,30.21,10.0,NNW,15.0,-,N/A,,Clear,340,2012-10-25 23:53:00
5:53 PM,63.0,45.0,52,30.20,10.0,NNW,12.7,-,N/A,,Clear,330,2012-10-26 00:53:00
6:53 PM,59.0,44.1,58,30.20,10.0,NW,9.2,-,N/A,,Clear,320,2012-10-26 01:53:00
7:53 PM,59.0,41.0,51,30.21,10.0,NW,11.5,-,N/A,,Clear,320,2012-10-26 02:53:00
8:53 PM,59.0,39.0,48,30.21,10.0,NNW,16.1,23.0,N/A,,Clear,330,2012-10-26 03:53:00
9:53 PM,57.2,39.2,51,30.21,10.0,NW,16.1,-,N/A,,Clear,320,2012-10-26 04:53:00
10:53 PM,55.9,39.0,53,30.22,10.0,NW,13.8,-,N/A,,Clear,320,2012-10-26 05:53:00
11:53 PM,53.6,39.2,58,30.21,10.0,NW,12.7,-,N/A,,Clear,320,2012-10-26 06:53:00